This is the latest recevied weather packets stored in our database for station/object SR4DIG-13. If no packets are shown the sender has not sent any weather packets the latest 10 day(s).
| Time | Temp. | Humidity | Pressure | Rain* | Wind** | Luminosity | Snow |
|---|---|---|---|---|---|---|---|
| 1777981482 | 26.11° C | 37% | 1008.2 hPa | 0 mm | - | - | - |
| 1777981107 | 25.56° C | 38% | 1008.3 hPa | 0 mm | - | - | - |
| 1777980806 | 25.56° C | 38% | 1008.3 hPa | 0 mm | - | - | - |
| 1777980505 | 25.56° C | 38% | 1008.3 hPa | 0 mm | - | - | - |
| 1777980204 | 26.11° C | 37% | 1008.4 hPa | 0 mm | - | - | - |
| 1777979593 | 26.11° C | 36% | 1008.6 hPa | 0 mm | - | - | - |
| 1777979293 | 27.22° C | 35% | 1008.5 hPa | 0 mm | - | - | - |
| 1777978691 | 28.89° C | 35% | 1008.5 hPa | 0 mm | - | - | - |
| 1777978390 | 28.89° C | 35% | 1008.5 hPa | 0 mm | - | - | - |
| 1777978089 | 28.89° C | 35% | 1008.6 hPa | 0 mm | - | - | - |
| 1777977789 | 28.89° C | 35% | 1008.8 hPa | 0 mm | - | - | - |
| 1777977401 | 28.89° C | 35% | 1008.8 hPa | 0 mm | - | - | - |
| 1777977101 | 28.89° C | 35% | 1008.9 hPa | 0 mm | - | - | - |
| 1777976801 | 28.33° C | 36% | 1008.9 hPa | 0 mm | - | - | - |
| 1777976501 | 27.22° C | 37% | 1009 hPa | 0 mm | - | - | - |
| 1777975882 | 27.22° C | 37% | 1009.1 hPa | 0 mm | - | - | - |
| 1777975581 | 27.78° C | 36% | 1009.2 hPa | 0 mm | - | - | - |
| 1777975280 | 28.33° C | 36% | 1009.2 hPa | 0 mm | - | - | - |
| 1777974979 | 27.22° C | 38% | 1009.3 hPa | 0 mm | - | - | - |
| 1777974678 | 27.22° C | 38% | 1009.3 hPa | 0 mm | - | - | - |
| 1777974377 | 27.22° C | 39% | 1009.3 hPa | 0 mm | - | - | - |
| 1777974077 | 26.67° C | 40% | 1009.4 hPa | 0 mm | - | - | - |
| 1777973706 | 26.11° C | 41% | 1009.5 hPa | 0 mm | - | - | - |
| 1777973405 | 26.11° C | 42% | 1009.5 hPa | 0 mm | - | - | - |
| 1777973104 | 26.11° C | 41% | 1009.6 hPa | 0 mm | - | - | - |
* Rain since midnight (hover to see other rain measurements)
** Current wind speed in m/s (hover to see current wind gust speed)